EHI
0 0 0 0 0 0 0 0 0 0 0 0 0 0 0 0 0 0 0 0 0 0 3 7 7 4 3 2 2 5 7 6 5 6 6 5 2 1 0 1 1 1 2 3
0 0 0 0 0 0 0 0 0 0 0 0 0 0 0 0 0 0 0 0 0 1 3 7 7 5 3 2 2 5 7 7 7 7 7 4 2 1 1 2 2 2 2 3
0 0 0 0 0 0 0 0 0 0 0 0 0 0 0 0 0 0 0 0 0 1 3 6 8 6 4 2 3 5 6 7 10 11 8 4 3 3 2 2 2 2 2 3
0 0 0 0 0 0 0 0 0 0 0 0 0 0 0 0 0 0 0 0 0 0 2 6 9 8 6 4 5 7 7 9 12 12 9 6 5 4 2 1 3 3 3 3
0 0 0 0 0 0 0 0 0 0 0 0 0 0 0 0 0 0 0 0 0 0 2 6 8 8 6 6 8 9 9 10 12 12 10 8 6 4 2 2 3 3 3 2
0 0 0 0 0 0 0 0 0 0 0 0 0 0 0 0 0 0 0 0 0 0 2 5 7 7 7 8 9 9 8 10 11 12 11 9 7 5 3 3 3 2 1 1
0 0 0 0 0 0 0 0 0 0 0 0 0 0 0 0 0 0 0 0 0 0 2 4 7 9 10 11 10 8 8 9 10 9 9 8 7 5 3 3 2 1 0 0
0 0 0 0 0 0 0 0 0 0 0 0 0 0 0 0 0 0 0 0 0 0 1 3 7 11 13 13 11 8 7 8 8 6 5 6 6 4 3 3 3 2 1 0
0 0 0 0 0 0 0 0 0 0 0 0 0 0 0 0 0 0 0 0 0 0 0 2 6 11 13 14 12 9 7 7 6 4 3 3 4 3 3 3 3 3 2 1
0 0 0 0 0 0 0 0 0 0 0 0 0 0 0 0 0 0 0 0 0 0 0 3 7 10 11 13 14 11 7 5 3 1 1 1 1 1 2 3 3 3 3 3
0 0 0 0 0 0 0 0 0 0 0 0 0 0 0 0 0 0 0 0 0 0 1 3 7 8 10 13 14 12 7 3 2 1 1 1 1 2 2 2 3 3 3 3
0 0 0 0 0 0 0 0 0 0 0 0 0 0 0 0 0 0 0 0 0 0 1 2 4 5 7 10 11 9 6 3 2 2 3 4 3 3 2 2 3 3 3 3
0 0 0 0 0 0 0 0 0 0 0 0 0 0 0 0 0 0 0 0 0 0 0 1 2 3 5 7 7 6 4 4 4 5 6 7 6 3 1 1 2 3 3 3
0 0 0 0 0 0 0 0 0 0 0 0 0 0 0 0 0 0 0 0 0 0 0 0 1 3 5 6 7 6 5 6 8 8 8 8 6 3 1 1 3 4 3 3
0 0 0 0 0 0 0 0 0 0 0 0 0 0 0 0 0 0 0 0 0 0 0 0 1 3 5 6 6 7 8 8 9 10 8 6 4 3 2 3 4 4 4 3
0 0 0 0 0 0 0 0 0 0 0 0 0 0 0 0 0 0 0 0 0 0 0 0 1 3 4 4 5 8 9 8 8 9 7 4 2 2 3 3 5 5 5 4
0 0 0 0 0 0 0 0 0 0 0 0 0 0 0 0 0 0 0 0 0 0 1 1 2 3 3 2 4 9 9 8 8 8 7 4 3 3 2 3 5 6 6 5
0 0 0 0 0 0 0 0 0 0 0 0 0 0 0 0 0 0 0 0 0 0 1 2 3 3 2 1 3 7 8 6 6 7 6 5 4 3 2 3 4 5 5 5
0 0 0 0 0 0 0 0 0 0 0 0 0 0 0 0 0 0 0 0 0 0 1 3 3 2 1 1 2 3 3 3 3 4 3 3 4 3 3 3 3 3 3 3
0 0 0 0 0 0 0 0 0 0 0 0 0 0 0 0 0 0 0 0 0 1 2 3 3 1 0 0 1 1 0 0 1 1 1 1 2 2 2 2 2 2 1 1
0 0 0 0 0 0 0 0 0 0 0 0 0 0 0 0 0 0 0 0 1 2 3 3 3 1 1 0 0 0 0 0 0 0 0 0 1 1 1 1 1 1 0 0
0 0 0 0 0 0 0 0 0 0 0 0 0 0 0 0 0 0 0 0 1 2 3 3 3 2 1 0 0 0 0 0 0 0 0 0 0 0 0 0 0 0 0 0
0 0 0 0 0 0 0 0 0 0 0 0 0 0 0 0 0 0 0 0 1 2 3 3 3 2 1 0 0 0 0 0 0 0 0 0 0 0 0 0 0 0 0 0
0 0 0 0 0 0 0 0 0 0 0 0 0 0 0 0 0 0 0 0 1 2 3 2 1 1 0 0 0 0 0 0 0 0 0 0 0 0 0 0 0 0 0 0
0 0 0 0 0 0 0 0 0 0 0 0 0 0 0 0 0 0 0 0 1 2 3 1 0 0 0 0 0 0 0 0 0 0 0 0 0 0 0 0 0 0 0 0
0 0 0 0 0 0 0 0 0 0 0 0 0 0 0 0 0 0 0 0 1 2 2 1 0 0 0 0 0 0 0 0 0 0 0 0 0 0 0 0 0 0 0 0
Wind_Speed
6 6 7 7 6 6 6 6 5 3 2 3 3 4 4 5 5 5 5 5 5 5 6 5 5 4 4 3 3 4 5 4 4 2 2 2 2 2 2 2 2 2 2 3
5 8 8 6 6 6 7 7 6 4 2 3 4 6 5 6 7 6 5 6 6 6 6 6 6 5 5 4 3 4 4 3 4 3 2 2 2 1 2 2 2 2 2 3
9 6 6 7 7 8 8 7 6 5 4 6 7 7 6 6 7 6 5 4 5 6 7 7 7 5 4 4 3 3 4 4 4 4 2 2 2 1 2 1 1 1 2 3
7 7 6 7 7 7 7 5 6 7 6 5 5 4 4 5 5 5 4 3 3 4 5 6 6 6 5 3 3 3 4 5 5 4 3 3 2 2 2 1 1 1 1 2
6 6 7 8 6 6 6 6 7 8 8 9 9 6 3 4 5 6 5 4 3 3 5 6 6 5 5 4 3 3 4 4 4 4 4 2 2 2 2 2 2 1 1 1
9 7 6 5 5 6 6 8 8 8 6 8 9 5 1 1 3 5 5 5 4 4 4 6 6 5 4 4 3 3 3 4 3 3 4 3 2 2 2 2 2 1 1 1
10 9 7 5 6 5 6 5 4 4 5 5 2 2 1 4 5 4 4 4 4 4 5 5 6 6 5 5 4 3 3 4 3 3 3 3 3 3 3 2 2 2 1 1
8 7 7 6 6 5 7 6 4 4 3 3 2 2 3 6 5 5 4 4 4 4 4 5 6 6 5 5 4 4 4 4 4 3 3 2 3 2 1 2 2 2 1 2
6 4 4 4 5 6 6 6 6 7 9 6 3 1 3 5 5 4 4 4 4 4 4 5 5 6 6 5 5 4 4 4 3 3 3 3 2 2 2 2 2 1 1 1
7 7 5 3 5 8 7 6 4 4 4 4 3 3 1 4 4 3 4 4 4 4 4 4 5 4 5 5 4 4 4 4 3 3 2 2 2 2 2 2 2 1 1 2
7 8 6 5 6 5 6 7 5 4 5 4 3 1 3 3 4 3 2 4 4 4 4 4 4 4 4 4 4 4 3 3 3 3 3 2 2 2 2 1 2 2 1 1
4 5 8 7 5 5 6 7 6 5 6 5 4 1 2 4 4 2 2 3 4 4 4 4 4 4 4 4 4 4 3 3 2 2 2 2 2 2 2 2 2 2 1 1
4 4 6 5 4 4 6 7 7 7 6 5 5 2 2 3 3 3 2 3 4 4 4 3 3 3 3 3 3 3 3 3 3 3 3 3 3 3 3 3 2 2 2 1
3 6 7 7 5 3 6 7 7 6 5 5 5 4 2 0 1 1 2 2 3 4 3 3 2 2 3 3 3 3 3 3 3 3 3 3 3 3 3 3 2 2 2 2
5 8 10 10 9 8 8 8 8 8 8 7 6 6 4 1 1 1 2 2 2 3 3 3 2 2 2 2 2 3 3 3 4 4 3 3 3 2 2 2 2 2 2 2
6 8 9 10 11 9 10 10 10 10 9 8 8 7 2 2 2 2 2 2 2 2 1 2 2 2 2 2 2 2 2 2 3 4 4 3 2 2 2 2 2 2 2 2
6 7 8 8 9 10 10 8 9 8 8 8 7 4 1 1 2 2 3 2 2 1 1 0 1 1 1 2 2 2 2 2 3 3 3 3 3 2 2 1 2 2 2 2
7 8 5 7 8 9 4 1 2 4 5 3 2 0 1 2 2 3 3 2 2 2 1 1 0 0 1 1 0 2 2 2 2 2 2 2 2 2 1 1 1 1 1 1
8 7 5 5 7 7 4 3 2 3 3 1 0 1 2 3 1 3 4 3 3 3 2 1 1 1 0 0 0 1 1 2 2 2 2 2 2 2 1 1 1 1 1 1
7 7 7 6 7 5 1 3 3 3 2 2 1 1 1 1 0 1 3 4 4 4 3 3 2 1 1 1 0 1 1 1 1 2 2 2 2 2 2 1 1 1 1 1
6 7 8 9 8 5 2 2 3 3 1 4 4 2 1 1 2 2 4 4 4 4 4 3 2 1 1 1 0 1 1 0 0 1 1 1 2 2 2 1 0 0 0 0
5 5 6 6 7 5 1 1 2 2 3 3 3 3 3 4 4 4 4 3 3 3 3 3 2 2 2 2 1 1 0 0 0 1 1 2 2 1 2 2 1 1 1 0
4 3 2 3 2 1 1 1 2 3 2 3 3 3 3 3 3 3 3 3 2 3 3 3 2 2 2 2 2 1 1 0 1 1 1 1 2 2 2 2 1 1 1 0
3 3 4 4 2 1 1 1 1 2 2 2 2 2 2 2 2 2 2 2 2 2 2 3 3 3 2 2 2 2 1 1 1 1 1 1 1 2 2 2 1 1 1 0
4 4 5 6 3 2 1 0 1 1 2 2 1 1 1 1 1 1 1 1 2 2 2 2 3 3 3 3 3 3 2 1 0 0 1 0 1 2 2 2 1 1 1 1
5 5 5 5 3 3 2 0 1 0 1 1 1 1 1 1 0 1 1 1 1 1 2 2 2 2 3 3 3 3 3 2 1 0 1 1 1 1 2 2 1 2 2 2
Wind_Direction
217 229 237 240 240 258 274 281 288 282 221 244 249 245 221 199 204 202 195 196 191 191 169 158 154 152 140 140 141 137 148 150 133 116 104 96 90 92 81 85 76 55 46 68
220 240 251 263 264 261 260 269 272 260 240 263 260 263 238 201 201 205 206 200 194 183 164 156 157 157 153 157 157 152 144 136 125 115 118 120 114 104 95 83 73 54 50 53
232 236 245 255 256 262 262 266 280 292 282 261 262 260 236 205 195 191 207 207 195 178 168 160 163 158 154 161 158 151 143 129 119 124 115 111 102 97 89 84 70 52 61 61
247 243 249 257 256 260 269 279 281 280 277 266 251 277 258 202 181 174 189 205 183 159 154 151 157 158 154 157 151 154 141 137 136 130 133 141 149 145 138 138 134 111 99 88
250 244 248 256 264 267 277 283 274 270 271 276 263 257 250 171 169 173 174 180 170 156 152 147 145 144 148 147 145 150 134 127 129 136 137 153 155 143 133 131 135 137 110 101
260 253 255 264 274 269 274 276 267 256 257 258 256 244 254 168 156 156 162 167 171 163 147 144 143 138 138 131 129 136 130 120 120 131 143 157 145 134 127 139 141 151 144 139
246 234 224 242 260 246 252 264 264 233 219 240 248 219 191 86 79 95 136 155 158 156 147 146 145 144 140 138 141 141 130 127 132 148 148 157 151 154 161 162 170 166 153 164
250 236 208 213 236 249 247 242 257 282 281 296 278 215 119 104 87 83 108 135 145 147 146 151 152 148 147 147 154 158 159 155 157 169 171 158 158 165 168 154 159 179 179 172
282 258 206 217 234 250 259 251 262 283 290 287 261 194 124 115 112 113 116 123 140 155 148 147 145 149 150 154 159 165 166 162 161 174 174 175 176 173 172 175 180 178 196 188
278 285 255 209 232 228 246 272 274 260 276 279 267 261 188 141 130 134 131 134 140 143 142 139 140 148 150 151 154 160 162 168 164 176 182 185 188 179 173 177 183 183 210 207
271 270 257 214 228 240 227 241 253 274 270 279 290 354 36 109 113 114 130 132 134 142 148 143 142 144 141 144 154 162 165 166 167 178 185 186 174 173 181 181 190 194 204 211
274 282 268 246 220 230 253 254 247 248 265 278 284 276 107 103 100 103 106 114 123 125 128 135 141 137 140 156 165 167 167 165 170 175 176 179 176 179 184 202 214 198 190 203
322 274 276 250 200 200 241 246 255 263 267 264 264 234 144 114 105 93 90 106 112 112 118 120 128 143 151 159 168 176 176 180 174 174 177 179 184 185 197 213 213 203 194 206
284 259 262 270 285 275 260 264 265 260 257 263 262 265 267 90 50 71 92 107 121 126 125 127 139 152 150 166 177 180 183 183 173 169 174 181 193 192 203 215 205 209 209 211
256 264 267 275 283 280 279 274 270 263 262 263 270 274 282 13 100 64 86 94 115 130 140 145 160 165 162 179 184 178 178 178 177 171 179 192 198 187 196 200 197 215 219 221
248 268 276 274 270 269 266 263 260 256 258 257 262 269 294 23 39 52 60 88 95 99 122 150 176 180 185 199 190 167 170 177 175 175 183 186 190 188 197 203 206 214 223 226
247 265 278 277 281 276 260 255 255 256 251 252 255 261 359 37 35 37 46 59 89 94 73 99 223 213 217 223 183 173 176 175 170 174 181 178 186 187 201 217 223 214 213 234
260 265 268 276 276 261 267 296 276 267 276 273 248 121 47 47 69 73 59 40 48 61 78 64 315 259 285 299 158 170 164 179 180 172 166 154 158 164 174 198 217 220 228 238
244 253 262 267 268 269 271 285 286 280 275 304 161 89 67 62 74 87 55 42 48 47 50 45 15 9 344 285 157 148 167 169 168 165 166 161 162 170 172 189 198 220 253 252
229 236 243 252 261 261 297 346 333 280 256 46 58 84 84 89 247 63 55 54 49 43 41 43 30 16 12 357 179 170 178 154 173 173 171 177 169 166 176 187 210 216 226 246
217 226 233 245 253 255 288 311 291 262 72 58 38 32 52 26 57 75 66 59 54 49 43 29 16 16 17 5 52 137 125 158 183 140 152 169 164 158 150 157 184 110 90 303
235 235 235 239 246 243 80 254 290 44 69 56 38 35 48 62 73 79 77 64 57 49 40 27 17 17 17 23 27 86 100 76 83 123 149 157 149 147 127 119 103 94 93 29
233 241 259 248 239 79 90 46 37 50 40 38 25 35 62 70 63 72 72 67 60 48 36 31 24 21 26 20 9 21 1 35 145 139 150 162 146 135 121 118 111 94 95 91
257 249 253 262 222 192 149 102 43 29 18 20 32 46 62 76 73 74 68 65 65 51 38 27 25 25 18 14 32 21 26 48 25 146 163 172 157 138 118 105 98 90 75 58
285 281 267 263 251 258 252 264 51 40 25 13 32 33 25 60 70 84 80 76 81 65 49 32 26 16 12 21 31 20 18 56 58 105 103 120 118 117 108 98 81 105 101 105
258 260 257 265 281 277 266 73 103 88 291 302 342 356 26 48 77 63 71 74 85 75 60 47 35 25 22 24 25 17 17 25 34 87 114 91 74 93 114 125 96 63 83 72